Faro, Portugal

10:45 AM WET on November 21, 2019 (GMT +0000)
Faro

Weather History for LPFR - September, 2019

Change the Weather History Date:

Sunday, September 1, 2019

  Actual Average Record
Temperature  
Mean Temperature 76 °F -  
Max Temperature 82 °F 77 °F 87 °F (2012)
Min Temperature 69 °F 63 °F 60 °F (2002)
Cooling Degree Days 10    
Growing Degree Days 26 (Base 50)    
Moisture  
Dew Point 65 °F    
Average Humidity 68    
Maximum Humidity 88    
Minimum Humidity 46    
Precipitation  
Precipitation 0.00 in 0.02 in - ()
Sea Level Pressure  
Sea Level Pressure 29.93 in    
Wind  
Wind Speed 5 mph ()    
Max Wind Speed 14 mph    
Max Gust Speed -    
Visibility 12.3 miles    
Events      
Averages and records for this station are not official NWS values.
T = Trace of Precipitation, MM = Missing Value Source: Averaged Metar Reports

Daily Weather History Graph

Daily Weather History Graph

Search for Another Location

Airport or City:

Astronomy

Sep. 01, 2019 Rise Set
Actual Time 7:02 AM WEST 8:01 PM WEST
Civil Twilight 6:35 AM WEST 8:27 PM WEST
Nautical Twilight 6:04 AM WEST 8:59 PM WEST
Astronomical Twilight 5:31 AM WEST 9:31 PM WEST
Moon 9:13 AM WEST (9/1) 9:44 PM WEST (9/1)
Length of Visible Light 13h 51m
Length of Day
12h 58m
Waxing Crescent, 6% of the Moon is Illuminated
Sep 1
Waxing Crescent
Sep 6
First Quarter
Sep 14
Full
Sep 22
Last Quarter
Sep 28
New

Hourly Weather History & Observations

Time (WEST) Temp. Heat Index Dew Point Humidity Pressure Visibility Wind Dir Wind Speed Gust Speed Precip Events Conditions
12:00 AM 77 °F - 63 °F 52% 29.96 in - SW 2.2 mph - -  
12:30 AM 75.2 °F - 64.4 °F 69% 29.92 in - SE 3.5 mph - N/A   Clear
1:00 AM 75 °F - 67 °F 68% 29.96 in 12 mi ESE 1.2 mph - -   Clear
1:00 AM 75.2 °F - 66.2 °F 73% 29.95 in - SE 3.5 mph - N/A   Clear
1:30 AM 73.4 °F - 68.0 °F 83% 29.95 in - Variable 2.3 mph - N/A   Clear
2:00 AM 76 °F - 67 °F 66% 29.96 in - NNE 2.2 mph - -  
2:00 AM 75.2 °F - 66.2 °F 73% 29.92 in - North 3.5 mph - N/A   Clear
2:30 AM 75.2 °F - 64.4 °F 69% 29.92 in - NNE 4.6 mph - N/A   Clear
3:00 AM 75.2 °F - 66.2 °F 73% 29.92 in - North 4.6 mph - N/A   Clear
3:30 AM 73.4 °F - 64.4 °F 73% 29.92 in - North 3.5 mph - N/A   Clear
4:00 AM 75 °F - 63 °F 59% 29.94 in 12 mi NE 4.5 mph - -   Clear
4:00 AM 73.4 °F - 64.4 °F 73% 29.92 in - NE 4.6 mph - N/A   Clear
4:30 AM 75.2 °F - 62.6 °F 65% 29.92 in - North 5.8 mph - N/A   Clear
5:00 AM 73.4 °F - 60.8 °F 65% 29.92 in - NNE 4.6 mph - N/A   Clear
5:30 AM 75.2 °F - 60.8 °F 61% 29.92 in - NE 3.5 mph - N/A   Clear
6:00 AM 74 °F - 64 °F 65% 29.94 in - ENE 6.7 mph - -  
6:00 AM 73.4 °F - 62.6 °F 69% 29.92 in - NE 6.9 mph - N/A   Clear
6:30 AM 73.4 °F - 64.4 °F 73% 29.92 in - NE 5.8 mph - N/A   Clear
7:00 AM 71 °F - 62 °F 65% 29.96 in 12 mi North 2.2 mph - -   Clear
7:00 AM 73.4 °F - 64.4 °F 73% 29.92 in - NNE 5.8 mph - N/A   Clear
7:30 AM 69.8 °F - 60.8 °F 73% 29.92 in - NNW 3.5 mph - N/A   Clear
8:00 AM 74 °F - 60 °F 51% 29.96 in - North 2.2 mph - -  
8:00 AM 71.6 °F - 59.0 °F 64% 29.95 in - Calm Calm - N/A   Clear
8:30 AM 75.2 °F - 59.0 °F 57% 29.95 in - Variable 1.2 mph - N/A   Clear
9:00 AM 78.8 °F - 59.0 °F 51% 29.95 in - Variable 2.3 mph - N/A   Clear
9:30 AM 78.8 °F - 62.6 °F 57% 29.95 in - SE 4.6 mph - N/A   Clear
10:00 AM 79 °F - 62 °F 46% 29.98 in 12 mi SE 8.9 mph - -   Clear
10:00 AM 78.8 °F - 64.4 °F 61% 29.95 in - ESE 8.1 mph - N/A   Clear
10:30 AM 78.8 °F - 62.6 °F 57% 29.95 in - ESE 11.5 mph - N/A   Clear
11:00 AM 78.8 °F - 66.2 °F 65% 29.95 in - East 13.8 mph - N/A   Clear
11:30 AM 78.8 °F - 68.0 °F 69% 29.95 in - East 12.7 mph - N/A   Clear
12:00 PM 78.8 °F - 68.0 °F 69% 29.95 in - ESE 13.8 mph - N/A   Clear
12:30 PM 80.6 °F 83.9 °F 69.8 °F 70% 29.95 in - ESE 12.7 mph - N/A   Clear
1:00 PM 81 °F - 69 °F 60% 29.97 in 9 mi ESE 5.8 mph - -   Clear
1:00 PM 80.6 °F 83.9 °F 69.8 °F 70% 29.95 in - ESE 11.5 mph - N/A   Clear
1:30 PM 80.6 °F 83.9 °F 69.8 °F 70% 29.95 in - SE 9.2 mph - N/A   Clear
2:00 PM 78.8 °F - 68.0 °F 69% 29.95 in - South 9.2 mph - N/A   Clear
2:30 PM 78.8 °F - 64.4 °F 61% 29.95 in - South 8.1 mph - N/A   Clear
3:00 PM 78 °F - 67 °F 62% 29.96 in - SSW 8.9 mph - -  
3:00 PM 78.8 °F - 68.0 °F 69% 29.92 in - SSW 9.2 mph - N/A   Clear
3:30 PM 77.0 °F - 68.0 °F 74% 29.92 in - SSW 9.2 mph - N/A   Clear
4:00 PM 78 °F - 66 °F 59% 29.94 in 16 mi WSW 8.9 mph - -   Clear
4:00 PM 77.0 °F - 68.0 °F 74% 29.92 in - SW 9.2 mph - N/A   Clear
4:30 PM 77.0 °F - 68.0 °F 74% 29.92 in - WSW 10.4 mph - N/A   Clear
5:00 PM 77 °F - 67 °F 65% 29.94 in - West 11.2 mph - -  
5:00 PM 77.0 °F - 66.2 °F 69% 29.92 in - WSW 11.5 mph - N/A   Clear
5:30 PM 77.0 °F - 66.2 °F 69% 29.92 in - WSW 11.5 mph - N/A   Clear
6:00 PM 77.0 °F - 66.2 °F 69% 29.92 in - WSW 11.5 mph - N/A   Clear
6:30 PM 77.0 °F - 64.4 °F 65% 29.92 in - WSW 11.5 mph - N/A   Clear
7:00 PM 77 °F - 64 °F 55% 29.93 in 16 mi West 8.9 mph - -   Clear
7:00 PM 77.0 °F - 64.4 °F 65% 29.89 in - WSW 9.2 mph - N/A   Clear
7:30 PM 75.2 °F - 64.4 °F 69% 29.89 in - West 9.2 mph - N/A   Clear
8:00 PM 76 °F - 64 °F 58% 29.92 in - WNW 4.5 mph - -  
8:00 PM 75.2 °F - 64.4 °F 69% 29.89 in - West 6.9 mph - N/A   Clear
8:30 PM 73.4 °F - 64.4 °F 73% 29.89 in - WSW 5.8 mph - N/A   Clear
9:00 PM 75 °F - 66 °F 67% 29.93 in - WSW 6.7 mph - -  
9:00 PM 73.4 °F - 66.2 °F 78% 29.89 in - WSW 5.8 mph - N/A   Clear
9:30 PM 73.4 °F - 68.0 °F 83% 29.92 in - WSW 5.8 mph - N/A   Clear
10:00 PM 74 °F - 68 °F 77% 29.94 in 9 mi WSW 4.5 mph - -   Clear
10:00 PM 73.4 °F - 68.0 °F 83% 29.92 in - SW 5.8 mph - N/A   Clear
10:30 PM 73.4 °F - 68.0 °F 83% 29.92 in - WSW 4.6 mph - N/A   Clear
11:00 PM 73.4 °F - 69.8 °F 88% 29.92 in - WSW 4.6 mph - N/A   Clear
11:30 PM 71.6 °F - 68.0 °F 88% 29.92 in - West 4.6 mph - N/A   Clear